Drummond Island, MI

1:17 AM EDT on September 20, 2017 (GMT -0400)
Drummond Island

Weather History for KDRM - March, 2013

Change the Weather History Date:

Thursday, March 28, 2013

  Actual Average (KCIU) Record (KCIU)
Temperature  
Mean Temperature 36 °F -  
Max Temperature 42 °F 43 °F 59 °F (1989)
Min Temperature 30 °F 19 °F 0 °F (2015)
Degree Days  
Heating Degree Days 29    
Moisture  
Dew Point 26 °F    
Average Humidity 71    
Maximum Humidity 96    
Minimum Humidity 43    
Precipitation  
Precipitation 0.00 in - - ()
Sea Level Pressure  
Sea Level Pressure 30.18 in    
Wind  
Wind Speed 4 mph (WNW)    
Max Wind Speed 13 mph    
Max Gust Speed 20 mph    
Visibility 10 miles    
Events Snow    
Averages and records for this station are not official NWS values.
T = Trace of Precipitation, MM = Missing Value Source: NWS Daily Summary

Daily Weather History Graph

Daily Weather History Graph

Search for Another Location

Airport or City:

Trip Planner

Search our weather history database for the weather conditions in past years. The results will help you decide how hot, cold, wet, or windy it might be!

Date:

Astronomy

Mar. 28, 2013 Rise Set
Actual Time 7:22 AM EDT 7:58 PM EDT
Civil Twilight 6:52 AM EDT 8:28 PM EDT
Nautical Twilight 6:16 AM EDT 9:04 PM EDT
Astronomical Twilight 5:39 AM EDT 9:41 PM EDT
Moon 9:57 PM EDT (3/28) 7:43 AM EDT (3/28)
Length of Visible Light 13h 36m
Length of Day
12h 36m
Full, 98% of the Moon is Illuminated
Mar 28
Full
Apr 3
Last Quarter
Apr 10
New
Apr 18
First Quarter
Apr 25
Full

Hourly Weather History & Observations

Time (EDT) Temp. Windchill Dew Point Humidity Pressure Visibility Wind Dir Wind Speed Gust Speed Precip Events Conditions
12:17 AM 32.9 °F 28.5 °F 30.2 °F 90% 30.14 in 10.0 mi WNW 4.6 mph - N/A   Overcast
12:37 AM 32.9 °F - 30.2 °F 90% 30.14 in 10.0 mi Calm Calm - N/A   Overcast
12:56 AM 33.1 °F 30.0 °F 30.2 °F 89% 30.14 in 10.0 mi NW 3.5 mph - N/A   Overcast
1:17 AM 33.3 °F 30.2 °F 30.2 °F 89% 30.15 in 10.0 mi NW 3.5 mph - N/A   Overcast
1:36 AM 32.9 °F 28.5 °F 30.2 °F 90% 30.15 in 10.0 mi WNW 4.6 mph - N/A   Overcast
1:57 AM 32.7 °F - 30.0 °F 90% 30.15 in 10.0 mi Calm Calm - N/A   Overcast
2:16 AM 32.9 °F - 30.0 °F 89% 30.15 in 10.0 mi Calm Calm - N/A   Overcast
2:37 AM 32.9 °F 29.8 °F 30.0 °F 89% 30.15 in 10.0 mi WNW 3.5 mph - N/A   Overcast
2:57 AM 32.9 °F - 29.8 °F 88% 30.15 in 10.0 mi Calm Calm - N/A   Mostly Cloudy
3:16 AM 32.9 °F - 29.8 °F 88% 30.16 in 10.0 mi Calm Calm - N/A   Mostly Cloudy
3:37 AM 32.9 °F - 29.7 °F 88% 30.16 in 10.0 mi Calm Calm - N/A   Overcast
3:57 AM 32.9 °F 29.8 °F 30.0 °F 89% 30.16 in 5.0 mi WNW 3.5 mph - N/A Snow Light Snow
4:16 AM 32.9 °F 29.8 °F 29.8 °F 88% 30.16 in 7.0 mi WNW 3.5 mph - N/A Snow Light Snow
4:37 AM 32.9 °F - 30.2 °F 90% 30.16 in 7.0 mi Calm Calm - N/A Snow Light Snow
4:57 AM 32.9 °F - 30.0 °F 89% 30.16 in 10.0 mi Calm Calm - N/A   Overcast
5:16 AM 32.5 °F - 29.8 °F 90% 30.16 in 10.0 mi Calm Calm - N/A   Overcast
5:37 AM 32.2 °F - 29.7 °F 90% 30.16 in 10.0 mi Calm Calm - N/A   Overcast
5:57 AM 32.2 °F - 29.7 °F 90% 30.16 in 10.0 mi Calm Calm - N/A   Overcast
6:16 AM 32.0 °F - 29.7 °F 91% 30.16 in 10.0 mi Calm Calm - N/A   Overcast
6:37 AM 32.0 °F - 29.5 °F 90% 30.17 in 10.0 mi Calm Calm - N/A   Overcast
6:56 AM 30.7 °F - 28.8 °F 92% 30.17 in 10.0 mi Calm Calm - N/A   Mostly Cloudy
7:17 AM 30.7 °F - 29.1 °F 94% 30.18 in 10.0 mi Calm Calm - N/A   Mostly Cloudy
7:37 AM 31.1 °F - 29.8 °F 95% 30.18 in 10.0 mi Calm Calm - N/A   Overcast
7:56 AM 31.1 °F 27.7 °F 30.0 °F 96% 30.18 in 10.0 mi West 3.5 mph - N/A   Overcast
8:17 AM 31.1 °F - 29.8 °F 95% 30.19 in 10.0 mi Calm Calm - N/A   Overcast
8:37 AM 31.3 °F 27.9 °F 29.5 °F 93% 30.19 in 10.0 mi West 3.5 mph - N/A   Mostly Cloudy
8:56 AM 31.1 °F - 29.1 °F 92% 30.19 in 10.0 mi Calm Calm - N/A   Mostly Cloudy
9:17 AM 31.3 °F - 28.6 °F 90% 30.19 in 10.0 mi Calm Calm - N/A   Scattered Clouds
9:37 AM 31.8 °F - 28.8 °F 88% 30.19 in 10.0 mi Calm Calm - N/A   Clear
9:56 AM 34.2 °F - 27.9 °F 78% 30.19 in 10.0 mi Calm Calm - N/A   Clear
10:17 AM 36.5 °F 31.8 °F 27.3 °F 69% 30.20 in 10.0 mi WNW 5.8 mph - N/A   Clear
10:36 AM 36.9 °F 34.3 °F 27.1 °F 68% 30.20 in 10.0 mi West 3.5 mph - N/A   Clear
10:57 AM 38.3 °F - 26.2 °F 62% 30.20 in 10.0 mi Calm Calm - N/A   Clear
11:17 AM 39.2 °F 37.0 °F 26.4 °F 60% 30.20 in 10.0 mi WSW 3.5 mph - N/A   Clear
11:36 AM 39.6 °F 35.4 °F 26.1 °F 58% 30.20 in 10.0 mi WNW 5.8 mph - N/A   Clear
11:57 AM 40.1 °F 35.3 °F 25.5 °F 56% 30.20 in 10.0 mi West 6.9 mph - N/A   Clear
12:17 PM 40.3 °F 34.9 °F 25.0 °F 54% 30.20 in 10.0 mi WNW 8.1 mph - N/A   Clear
12:36 PM 41.0 °F 35.8 °F 25.0 °F 53% 30.19 in 10.0 mi West 8.1 mph - N/A   Clear
12:57 PM 41.5 °F 35.9 °F 25.5 °F 53% 30.19 in 10.0 mi WNW 9.2 mph - N/A   Clear
1:17 PM 41.9 °F 35.9 °F 26.1 °F 53% 30.19 in 10.0 mi West 10.4 mph - N/A   Clear
1:36 PM 41.9 °F 36.3 °F 26.6 °F 55% 30.19 in 10.0 mi West 9.2 mph - N/A   Clear
1:57 PM 42.3 °F 36.8 °F 26.6 °F 54% 30.19 in 10.0 mi WNW 9.2 mph - N/A   Clear
2:17 PM 42.3 °F 37.9 °F 26.6 °F 54% 30.19 in 10.0 mi WNW 6.9 mph 17.3 mph N/A   Clear
2:37 PM 42.3 °F 37.9 °F 27.1 °F 55% 30.18 in 10.0 mi West 6.9 mph 16.1 mph N/A   Clear
2:57 PM 41.9 °F 35.9 °F 27.3 °F 56% 30.18 in 10.0 mi WNW 10.4 mph - N/A   Clear
3:16 PM 41.7 °F 36.7 °F 28.0 °F 58% 30.18 in 10.0 mi WNW 8.1 mph - N/A   Clear
3:37 PM 41.7 °F 36.7 °F 28.6 °F 60% 30.17 in 10.0 mi WNW 8.1 mph - N/A   Clear
3:57 PM 41.0 °F 34.3 °F 28.4 °F 61% 30.18 in 10.0 mi WNW 11.5 mph 18.4 mph N/A   Clear
4:16 PM 41.4 °F 36.2 °F 27.9 °F 59% 30.17 in 10.0 mi NW 8.1 mph 16.1 mph N/A   Clear
4:37 PM 41.2 °F 35.5 °F 27.7 °F 59% 30.17 in 10.0 mi WNW 9.2 mph - N/A   Clear
4:57 PM 40.6 °F 34.8 °F 27.5 °F 59% 30.17 in 10.0 mi WNW 9.2 mph - N/A   Clear
5:16 PM 40.5 °F 34.6 °F 26.4 °F 57% 30.17 in 10.0 mi WNW 9.2 mph 19.6 mph N/A   Clear
5:37 PM 40.1 °F 33.6 °F 22.6 °F 50% 30.17 in 10.0 mi WNW 10.4 mph 19.6 mph N/A   Clear
5:56 PM 40.1 °F 32.7 °F 21.0 °F 47% 30.17 in 10.0 mi WNW 12.7 mph 17.3 mph N/A   Clear
6:17 PM 39.7 °F 33.2 °F 19.0 °F 43% 30.18 in 10.0 mi NW 10.4 mph 16.1 mph N/A   Clear
6:37 PM 39.4 °F 34.5 °F 18.7 °F 43% 30.18 in 10.0 mi West 6.9 mph - N/A   Clear
6:56 PM 39.0 °F 34.8 °F 18.3 °F 43% 30.18 in 10.0 mi WNW 5.8 mph - N/A   Clear
7:17 PM 37.9 °F 33.5 °F 18.9 °F 46% 30.19 in 10.0 mi NW 5.8 mph - N/A   Clear
7:37 PM 37.0 °F 32.4 °F 18.5 °F 47% 30.19 in 10.0 mi WNW 5.8 mph - N/A   Clear
7:56 PM 36.0 °F 30.3 °F 19.6 °F 51% 30.20 in 10.0 mi West 6.9 mph - N/A   Clear
8:17 PM 34.7 °F 29.6 °F 21.2 °F 58% 30.20 in 10.0 mi West 5.8 mph - N/A   Clear
8:36 PM 34.0 °F 28.8 °F 22.1 °F 62% 30.20 in 10.0 mi West 5.8 mph - N/A   Clear
8:57 PM 33.8 °F 28.6 °F 21.7 °F 61% 30.20 in 10.0 mi WNW 5.8 mph - N/A   Clear
9:17 PM 33.3 °F 30.2 °F 21.2 °F 61% 30.20 in 10.0 mi NW 3.5 mph - N/A   Clear
9:36 PM 32.9 °F 29.8 °F 19.6 °F 58% 30.21 in 10.0 mi NW 3.5 mph - N/A   Clear
9:57 PM 32.2 °F 27.7 °F 19.9 °F 61% 30.21 in 10.0 mi WNW 4.6 mph - N/A   Clear
10:17 PM 32.0 °F 26.4 °F 21.0 °F 64% 30.21 in 10.0 mi West 5.8 mph - N/A   Clear
10:36 PM 31.1 °F 23.7 °F 20.5 °F 65% 30.21 in 10.0 mi WNW 8.1 mph - N/A   Clear
10:57 PM 31.1 °F 24.5 °F 21.2 °F 67% 30.21 in 10.0 mi West 6.9 mph - N/A   Clear
11:17 PM 30.7 °F 24.1 °F 22.3 °F 71% 30.21 in 10.0 mi WNW 6.9 mph - N/A   Clear
11:36 PM 30.2 °F 21.9 °F 23.5 °F 76% 30.21 in 10.0 mi WNW 9.2 mph - N/A   Clear
11:57 PM 30.0 °F 23.2 °F 24.4 °F 80% 30.21 in 10.0 mi WNW 6.9 mph - N/A   Clear